User: anonymous   Login
Location: Unspecified
(0.0000°N, 0.0000°E)
Time: 19:33:04
(UTC+00:00)
Language:

COSMOS 2508 - Orbit

View from above orbital plane
View from above orbital plane
View from above satellite
View from above satellite

Ground track
Ground track

The orbit data is extracted from the following two-line orbital elements,

1 40921U 15050B   18288.72826873 +.00000010 +00000-0 -25706-5 0  9994
2 40921 082.4921 023.2686 0013677 014.6380 345.5093 12.42882105138854
Epoch (UTC): 15 October 2018 17:28:42
Eccentricity: 0.0013677
inclination: 82.4921°
perigee height: 1483 km
apogee height: 1505 km
right ascension of ascending node: 23.2686°
argument of perigee: 14.6380°
revolutions per day: 12.42882105
mean anomaly at epoch: 345.5093°
orbit number at epoch: 13885

The dashed part of the orbit path shows where the satellite is in the earth's shadow,  

DLR